GW3271 Weather Reports


Display with metric or nautical units.
time (UTC)temp
F
wind
direction
speed
MPH
gust
MPH
rain 1hr
in
rain 24hr
in
rain mn
in
humidity
%
barometer
mb
20260902120034 78 0 0.0 0.0 0.00 0.00 0.00 80 1015.1
20260902114607 77 0 0.0 0.0 0.00 0.00 0.00 80 1015.0
20260902113032 78 0 0.0 0.0 0.00 0.00 0.00 79 1014.8
20260902111532 79 0 0.0 1.0 0.00 0.00 0.00 78 1014.8
20260902110033 79 0 0.0 0.0 0.00 0.00 0.00 77 1014.8
20260902104534 79 0 0.0 1.0 0.00 0.00 0.00 77 1014.9
20260902103035 79 0 0.0 0.0 0.00 0.00 0.00 77 1014.8
20260902101534 80 0 0.0 1.0 0.00 0.00 0.00 76 1014.8
20260902100043 80 0 0.0 1.0 0.00 0.00 0.00 75 1014.7
20260902094537 80 0 0.0 0.0 0.00 0.00 0.00 74 1014.7
20260902093050 81 0 0.0 1.0 0.00 0.00 0.00 73 1014.7
20260902091532 81 245 0.0 3.0 0.00 0.00 0.00 73 1014.9
20260902090032 81 0 0.0 1.0 0.00 0.00 0.00 73 1014.9
20260902084536 81 0 0.0 1.0 0.00 0.00 0.00 73 1015.0
20260902083038 82 0 0.0 2.0 0.00 0.00 0.00 72 1015.0
20260902081533 82 54 0.0 1.0 0.00 0.00 0.00 71 1015.0
20260902080034 83 0 0.0 1.0 0.00 0.00 0.00 67 1015.1
20260902074538 83 0 0.0 5.0 0.00 0.00 0.00 67 1015.0
20260902073033 83 0 0.0 1.0 0.00 0.00 0.00 68 1015.0
20260902071532 83 60 1.0 4.0 0.00 0.00 0.00 68 1015.2
20260902070033 84 0 0.0 3.0 0.00 0.00 0.00 68 1015.4
20260902064540 84 241 1.0 4.0 0.00 0.00 0.00 68 1015.2
20260902063033 84 0 0.0 2.0 0.00 0.00 0.00 69 1015.0
20260902061533 84 198 0.0 3.0 0.00 0.00 0.00 69 1015.1
20260902060031 84 239 0.0 1.0 0.00 0.00 0.00 68 1015.1
20260902054539 85 0 0.0 2.0 0.00 0.00 0.00 68 1015.1
20260902053110 85 0 0.0 2.0 0.00 0.00 0.00 67 1015.2
20260902051534 86 243 0.0 2.0 0.00 0.00 0.00 66 1015.1
20260902050040 86 0 0.0 2.0 0.00 0.00 0.00 66 1015.3
20260902044530 86 254 1.0 3.0 0.00 0.00 0.00 65 1015.2
20260902043034 87 37 1.0 4.0 0.00 0.00 0.00 64 1015.3
20260902041538 87 0 0.0 6.0 0.00 0.00 0.00 63 1015.3
20260902040039 88 62 1.0 4.0 0.00 0.00 0.00 61 1015.1
20260902034534 88 49 2.0 5.0 0.00 0.00 0.00 60 1014.9
20260902033038 89 50 1.0 4.0 0.00 0.00 0.00 58 1014.6
20260902031534 89 80 0.0 5.0 0.00 0.00 0.00 57 1014.4
20260902030034 89 95 2.0 6.0 0.00 0.00 0.00 56 1014.3
20260902024539 90 72 2.0 5.0 0.00 0.00 0.00 56 1014.1
20260902023030 90 93 1.0 4.0 0.00 0.00 0.00 55 1013.8
20260902021545 90 72 1.0 4.0 0.00 0.00 0.00 54 1013.6
20260902020036 91 134 1.0 4.0 0.00 0.00 0.00 54 1013.5
20260902014537 91 95 0.0 6.0 0.00 0.00 0.00 53 1013.2
20260902013035 92 0 0.0 8.0 0.00 0.00 0.00 50 1013.0
20260902011534 94 58 2.0 6.0 0.00 0.00 0.00 46 1012.9
20260902010035 94 113 3.0 7.0 0.00 0.00 0.00 44 1012.6
20260902004536 95 78 3.0 8.0 0.00 0.00 0.00 44 1012.8
20260902003038 95 75 2.0 7.0 0.00 0.00 0.00 43 1012.9
20260902001534 95 105 3.0 8.0 0.00 0.00 0.00 44 1012.8
20260902000037 95 83 2.0 7.0 0.00 0.00 0.00 45 1012.8
20260901234534 96 105 2.0 7.0 0.00 0.00 0.00 44 1013.0
20260901233051 96 131 3.0 9.0 0.00 0.00 0.00 44 1012.8
20260901231538 98 89 4.0 12.0 0.00 0.00 0.00 43 1012.7
20260901230035 99 68 2.0 5.0 0.00 0.00 0.00 40 1012.6
20260901224533 99 105 2.0 7.0 0.00 0.00 0.00 40 1012.7
20260901223032 98 84 3.0 8.0 0.00 0.00 0.00 41 1012.8
20260901221534 98 12 2.0 10.0 0.00 0.00 0.00 40 1012.8
20260901220036 99 123 4.0 11.0 0.00 0.00 0.00 39 1012.8
20260901214538 100 122 4.0 10.0 0.00 0.00 0.00 37 1012.8
20260901213035 100 35 1.0 4.0 0.00 0.00 0.00 38 1012.9
20260901211534 100 250 1.0 5.0 0.00 0.00 0.00 40 1013.1
20260901210033 98 0 0.0 5.0 0.00 0.00 0.00 41 1013.3
20260901204535 98 42 3.0 6.0 0.00 0.00 0.00 43 1013.6
20260901203042 97 0 1.0 3.0 0.00 0.00 0.00 43 1013.8
20260901201531 96 94 0.0 7.0 0.00 0.00 0.00 45 1014.0
20260901200038 98 86 2.0 7.0 0.00 0.00 0.00 44 1014.2
20260901194538 97 53 2.0 7.0 0.00 0.00 0.00 45 1014.3
20260901193038 99 16 0.0 6.0 0.00 0.00 0.00 44 1014.4
20260901191534 96 275 2.0 10.0 0.00 0.00 0.00 46 1014.6
20260901190034 97 87 2.0 6.0 0.00 0.00 0.00 44 1014.7
20260901184530 97 142 4.0 7.0 0.00 0.00 0.00 44 1015.1
20260901183036 97 60 2.0 8.0 0.00 0.00 0.00 45 1015.4
20260901181532 95 91 2.0 6.0 0.00 0.00 0.00 48 1015.6
20260901180036 95 89 2.0 8.0 0.00 0.00 0.00 49 1015.9
20260901174534 96 293 1.0 7.0 0.00 0.00 0.00 48 1016.4
20260901173030 95 70 3.0 6.0 0.00 0.00 0.00 48 1016.5
20260901171542 94 162 2.0 5.0 0.00 0.00 0.00 51 1016.6
20260901170032 93 8 1.0 5.0 0.00 0.00 0.00 51 1016.9
20260901164531 93 112 0.0 5.0 0.00 0.00 0.00 52 1017.0
20260901163039 93 244 0.0 4.0 0.00 0.00 0.00 53 1017.2
20260901161546 92 235 1.0 3.0 0.00 0.00 0.00 56 1017.2
20260901160032 90 127 2.0 5.0 0.00 0.00 0.00 57 1017.3
20260901154531 89 67 0.0 3.0 0.00 0.00 0.00 63 1017.4
20260901153043 89 87 1.0 4.0 0.00 0.00 0.00 62 1017.3
20260901151534 89 0 0.0 1.0 0.00 0.00 0.00 64 1017.2
20260901150031 88 0 0.0 2.0 0.00 0.00 0.00 66 1017.3
20260901144532 87 224 0.0 2.0 0.00 0.00 0.00 68 1017.3
20260901143033 86 65 0.0 2.0 0.00 0.00 0.00 72 1017.5
20260901141533 85 0 0.0 1.0 0.00 0.00 0.00 73 1017.6
20260901140035 85 0 0.0 2.0 0.00 0.00 0.00 74 1017.6
20260901134535 85 0 0.0 0.0 0.00 0.00 0.00 76 1017.4
20260901133034 83 0 0.0 0.0 0.00 0.00 0.00 79 1017.1
20260901131533 81 0 0.0 0.0 0.00 0.00 0.00 82 1017.0
20260901130034 79 0 0.0 0.0 0.00 0.00 0.00 86 1017.0
20260901124539 78 0 0.0 0.0 0.00 0.00 0.00 88 1016.7
20260901123041 76 0 0.0 0.0 0.00 0.00 0.00 89 1016.5
20260901121538 76 0 0.0 0.0 0.00 0.00 0.00 89 1016.4